Time,TemperatureF,DewpointF,PressureIn,WindDirection,WindDirectionDegrees,WindSpeedMPH,WindSpeedGustMPH,Humidity,HourlyPrecipIn,Conditions,Clouds,dailyrainin,SoftwareType,DateUTC
2013-05-03 00:01:00,54.5,53.9,29.81,SE,135,0.0,0.0,97,0.00,,,0.00,fowsr,2013-05-03 04:01:00,
2013-05-03 00:06:00,54.5,53.9,29.81,SE,135,0.0,0.0,97,0.00,,,0.00,fowsr,2013-05-03 04:06:00,
2013-05-03 00:11:00,54.5,53.7,29.81,SW,225,0.0,0.0,96,0.00,,,0.00,fowsr,2013-05-03 04:11:00,
2013-05-03 00:16:00,54.3,53.5,29.81,SW,225,0.0,0.0,96,0.00,,,0.00,fowsr,2013-05-03 04:16:00,
2013-05-03 00:21:00,54.3,53.5,29.80,NW,315,0.0,0.7,96,0.00,,,0.00,fowsr,2013-05-03 04:21:00,
2013-05-03 00:26:00,54.3,53.5,29.80,South,180,0.0,0.7,96,0.00,,,0.00,fowsr,2013-05-03 04:26:00,
2013-05-03 00:31:00,54.3,53.3,29.80,North,0,0.0,1.6,95,0.00,,,0.00,fowsr,2013-05-03 04:31:00,
2013-05-03 00:36:00,54.5,53.4,29.80,SE,135,0.0,0.0,95,0.00,,,0.00,fowsr,2013-05-03 04:36:00,
2013-05-03 00:41:00,54.5,53.4,29.80,South,180,0.0,0.0,95,0.00,,,0.00,fowsr,2013-05-03 04:41:00,
2013-05-03 00:46:00,54.5,53.2,29.80,South,180,0.0,0.0,94,0.00,,,0.00,fowsr,2013-05-03 04:46:00,
2013-05-03 00:51:00,54.3,53.0,29.80,SW,225,0.0,0.0,94,0.00,,,0.00,fowsr,2013-05-03 04:51:00,
2013-05-03 00:56:00,54.1,52.9,29.80,SW,225,0.0,0.0,94,0.00,,,0.00,fowsr,2013-05-03 04:56:00,
2013-05-03 01:01:00,54.0,52.5,29.80,East,90,0.0,0.0,93,0.00,,,0.00,fowsr,2013-05-03 05:01:00,
2013-05-03 01:06:00,54.0,52.5,29.81,East,90,0.0,0.0,93,0.00,,,0.00,fowsr,2013-05-03 05:06:00,
2013-05-03 01:11:00,53.8,52.3,29.80,East,90,0.0,0.0,93,0.00,,,0.00,fowsr,2013-05-03 05:11:00,
2013-05-03 01:16:00,53.6,52.1,29.81,East,90,0.0,0.0,93,0.00,,,0.00,fowsr,2013-05-03 05:16:00,
2013-05-03 01:21:00,53.4,52.1,29.80,East,90,0.0,0.0,94,0.00,,,0.00,fowsr,2013-05-03 05:21:00,
2013-05-03 01:26:00,53.2,52.0,29.79,East,90,0.0,0.0,94,0.00,,,0.00,fowsr,2013-05-03 05:26:00,
2013-05-03 01:31:00,53.2,52.0,29.79,West,270,0.0,0.0,94,0.00,,,0.00,fowsr,2013-05-03 05:31:00,
2013-05-03 01:36:00,53.1,51.8,29.79,West,270,0.0,0.0,94,0.00,,,0.00,fowsr,2013-05-03 05:36:00,
2013-05-03 01:46:00,52.9,51.8,29.79,West,270,0.0,0.0,95,0.00,,,0.00,fowsr,2013-05-03 05:46:00,
2013-05-03 01:51:00,52.7,51.7,29.79,West,270,0.0,0.0,95,0.00,,,0.00,fowsr,2013-05-03 05:51:00,
2013-05-03 01:56:00,52.5,51.5,29.79,West,270,0.0,0.0,95,0.00,,,0.00,fowsr,2013-05-03 05:56:00,
2013-05-03 02:01:00,52.5,51.5,29.79,West,270,0.0,0.0,95,0.00,,,0.00,fowsr,2013-05-03 06:01:00,
2013-05-03 02:06:00,52.3,51.3,29.79,West,270,0.0,0.0,95,0.00,,,0.00,fowsr,2013-05-03 06:06:00,
2013-05-03 02:11:00,52.3,51.3,29.78,West,270,0.0,0.0,95,0.00,,,0.00,fowsr,2013-05-03 06:11:00,
2013-05-03 02:16:00,52.2,51.1,29.78,West,270,0.0,0.0,95,0.00,,,0.00,fowsr,2013-05-03 06:16:00,
2013-05-03 02:21:00,52.2,51.3,29.78,West,270,0.0,0.0,96,0.00,,,0.00,fowsr,2013-05-03 06:21:00,
2013-05-03 02:26:00,52.0,51.1,29.78,West,270,0.0,0.0,96,0.00,,,0.00,fowsr,2013-05-03 06:26:00,
2013-05-03 02:31:00,52.0,51.1,29.78,West,270,0.0,0.0,96,0.00,,,0.00,fowsr,2013-05-03 06:31:00,
2013-05-03 02:36:00,51.8,51.0,29.77,West,270,0.0,0.0,96,0.00,,,0.00,fowsr,2013-05-03 06:36:00,
2013-05-03 02:41:00,51.8,51.0,29.77,West,270,0.0,0.0,96,0.00,,,0.00,fowsr,2013-05-03 06:41:00,
2013-05-03 02:46:00,51.8,51.0,29.77,West,270,0.0,0.0,96,0.00,,,0.00,fowsr,2013-05-03 06:46:00,
2013-05-03 02:51:00,51.8,51.0,29.77,West,270,0.0,0.0,96,0.00,,,0.00,fowsr,2013-05-03 06:51:00,
2013-05-03 02:56:00,51.6,51.0,29.77,West,270,0.0,0.0,97,0.00,,,0.00,fowsr,2013-05-03 06:56:00,
2013-05-03 03:01:00,51.4,51.0,29.77,SSW,202,0.0,0.7,98,0.00,,,0.00,fowsr,2013-05-03 07:01:00,
2013-05-03 03:06:00,51.4,51.0,29.77,NW,315,0.0,0.0,98,0.00,,,0.00,fowsr,2013-05-03 07:06:00,
2013-05-03 03:11:00,51.4,51.0,29.77,SW,225,0.0,0.7,98,0.00,,,0.00,fowsr,2013-05-03 07:11:00,
2013-05-03 03:16:00,51.4,51.0,29.77,SW,225,0.0,0.0,98,0.00,,,0.00,fowsr,2013-05-03 07:16:00,
2013-05-03 03:21:00,51.3,50.8,29.76,SW,225,0.0,0.0,98,0.00,,,0.00,fowsr,2013-05-03 07:21:00,
2013-05-03 03:26:00,51.3,50.8,29.77,SW,225,0.0,0.0,98,0.00,,,0.00,fowsr,2013-05-03 07:26:00,
2013-05-03 03:31:00,51.3,50.8,29.77,SW,225,0.0,0.7,98,0.00,,,0.00,fowsr,2013-05-03 07:31:00,
2013-05-03 03:36:00,51.3,50.8,29.77,SW,225,0.0,0.7,98,0.00,,,0.00,fowsr,2013-05-03 07:36:00,
2013-05-03 03:41:00,51.1,50.7,29.77,West,270,0.0,0.0,98,0.00,,,0.00,fowsr,2013-05-03 07:41:00,
2013-05-03 03:46:00,51.1,50.7,29.76,South,180,0.0,0.0,98,0.00,,,0.00,fowsr,2013-05-03 07:46:00,
2013-05-03 03:56:00,50.9,50.5,29.77,SW,225,0.0,0.7,98,0.00,,,0.00,fowsr,2013-05-03 07:56:00,
2013-05-03 04:01:00,50.9,50.5,29.76,SE,135,0.0,0.0,98,0.00,,,0.00,fowsr,2013-05-03 08:01:00,
2013-05-03 04:06:00,50.7,50.3,29.76,West,270,0.0,0.0,98,0.00,,,0.00,fowsr,2013-05-03 08:06:00,
2013-05-03 04:11:00,50.7,50.3,29.76,West,270,0.0,0.0,98,0.00,,,0.00,fowsr,2013-05-03 08:11:00,
2013-05-03 04:16:00,50.7,50.3,29.76,West,270,0.0,0.0,98,0.00,,,0.00,fowsr,2013-05-03 08:16:00,
2013-05-03 04:21:00,50.7,50.3,29.76,West,270,0.0,0.0,98,0.00,,,0.00,fowsr,2013-05-03 08:21:00,
2013-05-03 04:26:00,50.5,50.1,29.76,West,270,0.0,0.0,98,0.00,,,0.00,fowsr,2013-05-03 08:26:00,
2013-05-03 04:31:00,50.5,50.1,29.76,West,270,0.0,0.0,98,0.00,,,0.00,fowsr,2013-05-03 08:31:00,
2013-05-03 04:36:00,50.5,50.1,29.76,West,270,0.0,0.0,98,0.00,,,0.00,fowsr,2013-05-03 08:36:00,
2013-05-03 04:41:00,50.5,50.1,29.76,West,270,0.0,0.0,98,0.00,,,0.00,fowsr,2013-05-03 08:41:00,
2013-05-03 04:46:00,50.4,50.0,29.76,West,270,0.0,0.0,98,0.00,,,0.00,fowsr,2013-05-03 08:46:00,
2013-05-03 04:51:00,50.4,50.0,29.76,West,270,0.0,0.7,98,0.00,,,0.00,fowsr,2013-05-03 08:51:00,
2013-05-03 04:56:00,50.4,50.2,29.76,West,270,0.0,0.0,99,0.00,,,0.00,fowsr,2013-05-03 08:56:00,
2013-05-03 05:01:00,50.4,50.2,29.76,West,270,0.0,0.0,99,0.00,,,0.00,fowsr,2013-05-03 09:01:00,
2013-05-03 05:06:00,50.4,50.2,29.77,NW,315,0.0,0.0,99,0.00,,,0.00,fowsr,2013-05-03 09:06:00,
2013-05-03 05:11:00,50.4,50.2,29.77,East,90,0.0,0.7,99,0.00,,,0.00,fowsr,2013-05-03 09:11:00,
2013-05-03 05:16:00,50.4,50.2,29.77,NW,315,0.0,0.7,99,0.00,,,0.00,fowsr,2013-05-03 09:16:00,
2013-05-03 05:21:00,50.4,50.2,29.77,West,270,0.0,0.0,99,0.00,,,0.00,fowsr,2013-05-03 09:21:00,
2013-05-03 05:26:00,50.4,50.2,29.77,West,270,0.0,0.0,99,0.00,,,0.00,fowsr,2013-05-03 09:26:00,
2013-05-03 05:31:00,50.4,50.2,29.76,South,180,0.0,0.0,99,0.00,,,0.00,fowsr,2013-05-03 09:31:00,
2013-05-03 05:36:00,50.2,50.0,29.77,NW,315,0.0,0.0,99,0.00,,,0.00,fowsr,2013-05-03 09:36:00,
2013-05-03 05:41:00,50.2,49.8,29.77,NW,315,0.0,0.0,98,0.00,,,0.00,fowsr,2013-05-03 09:41:00,
2013-05-03 05:46:00,50.2,49.8,29.77,SSE,157,0.0,0.0,98,0.00,,,0.00,fowsr,2013-05-03 09:46:00,
2013-05-03 05:51:00,50.0,49.6,29.77,West,270,0.0,0.0,98,0.00,,,0.00,fowsr,2013-05-03 09:51:00,
2013-05-03 05:56:00,50.0,49.6,29.76,SW,225,0.0,0.0,98,0.00,,,0.00,fowsr,2013-05-03 09:56:00,
2013-05-03 06:01:00,50.0,49.6,29.77,SW,225,0.0,0.0,98,0.00,,,0.00,fowsr,2013-05-03 10:01:00,
2013-05-03 06:06:00,50.0,49.6,29.77,SW,225,0.0,0.0,98,0.00,,,0.00,fowsr,2013-05-03 10:06:00,
2013-05-03 06:11:00,50.0,49.8,29.76,West,270,0.0,0.0,99,0.00,,,0.00,fowsr,2013-05-03 10:11:00,
2013-05-03 06:16:00,49.8,49.6,29.77,South,180,0.0,0.0,99,0.00,,,0.00,fowsr,2013-05-03 10:16:00,
2013-05-03 06:21:00,49.8,49.6,29.77,SW,225,0.0,0.0,99,0.00,,,0.00,fowsr,2013-05-03 10:21:00,
2013-05-03 06:26:00,49.8,49.6,29.77,SE,135,0.0,0.0,99,0.00,,,0.00,fowsr,2013-05-03 10:26:00,
2013-05-03 06:31:00,49.8,49.6,29.77,North,0,0.0,0.0,99,0.00,,,0.00,fowsr,2013-05-03 10:31:00,
2013-05-03 06:36:00,49.8,49.6,29.77,West,270,0.0,0.7,99,0.00,,,0.00,fowsr,2013-05-03 10:36:00,
2013-05-03 06:41:00,50.0,49.8,29.77,SW,225,0.0,0.7,99,0.00,,,0.00,fowsr,2013-05-03 10:41:00,
2013-05-03 06:46:00,50.0,49.8,29.77,NW,315,0.0,0.0,99,0.00,,,0.00,fowsr,2013-05-03 10:46:00,
2013-05-03 06:51:00,49.8,49.6,29.77,NW,315,0.0,0.0,99,0.00,,,0.00,fowsr,2013-05-03 10:51:00,
2013-05-03 06:56:00,49.8,49.6,29.77,SW,225,0.0,0.0,99,0.00,,,0.00,fowsr,2013-05-03 10:56:00,
2013-05-03 07:01:00,50.0,49.8,29.78,West,270,0.0,0.0,99,0.00,,,0.00,fowsr,2013-05-03 11:01:00,
2013-05-03 07:06:00,50.0,49.8,29.78,West,270,0.0,0.0,99,0.00,,,0.00,fowsr,2013-05-03 11:06:00,
2013-05-03 07:11:00,50.0,49.8,29.79,South,180,0.0,0.0,99,0.00,,,0.00,fowsr,2013-05-03 11:11:00,
2013-05-03 07:16:00,50.0,49.8,29.78,NW,315,0.0,0.7,99,0.00,,,0.00,fowsr,2013-05-03 11:16:00,
2013-05-03 07:21:00,50.2,50.0,29.79,SE,135,0.0,0.0,99,0.00,,,0.00,fowsr,2013-05-03 11:21:00,
2013-05-03 07:26:00,50.2,50.0,29.79,NW,315,0.0,1.6,99,0.00,,,0.00,fowsr,2013-05-03 11:26:00,
2013-05-03 07:31:00,50.2,50.0,29.79,SW,225,0.0,0.0,99,0.00,,,0.00,fowsr,2013-05-03 11:31:00,
2013-05-03 07:36:00,50.4,50.2,29.79,NW,315,0.0,0.7,99,0.00,,,0.00,fowsr,2013-05-03 11:36:00,
2013-05-03 07:41:00,50.4,50.2,29.79,SW,225,0.0,0.7,99,0.00,,,0.00,fowsr,2013-05-03 11:41:00,
2013-05-03 07:46:00,50.5,50.3,29.79,SW,225,0.0,0.0,99,0.00,,,0.00,fowsr,2013-05-03 11:46:00,
2013-05-03 07:51:00,50.7,50.5,29.79,NW,315,0.0,1.6,99,0.00,,,0.00,fowsr,2013-05-03 11:51:00,
2013-05-03 07:56:00,51.1,50.9,29.79,NW,315,0.0,0.7,99,0.00,,,0.00,fowsr,2013-05-03 11:56:00,
2013-05-03 08:01:00,51.3,51.1,29.79,West,270,0.7,1.6,99,0.00,,,0.00,fowsr,2013-05-03 12:01:00,
2013-05-03 08:06:00,51.6,51.4,29.79,North,0,0.0,1.6,99,0.00,,,0.00,fowsr,2013-05-03 12:06:00,
2013-05-03 08:11:00,52.0,51.6,29.80,NW,315,0.0,0.7,98,0.00,,,0.00,fowsr,2013-05-03 12:11:00,
2013-05-03 08:16:00,52.3,51.9,29.80,SW,225,0.0,0.7,98,0.00,,,0.00,fowsr,2013-05-03 12:16:00,
2013-05-03 08:21:00,52.9,52.3,29.80,SE,135,0.0,0.7,97,0.00,,,0.00,fowsr,2013-05-03 12:21:00,
2013-05-03 08:26:00,53.2,52.6,29.80,SW,225,0.0,1.6,97,0.00,,,0.00,fowsr,2013-05-03 12:26:00,
2013-05-03 08:31:00,53.6,52.5,29.80,NW,315,0.0,0.7,95,0.00,,,0.00,fowsr,2013-05-03 12:31:00,
2013-05-03 08:36:00,54.1,52.9,29.80,NW,315,0.0,0.7,94,0.00,,,0.00,fowsr,2013-05-03 12:36:00,
2013-05-03 08:41:00,54.5,53.0,29.80,NW,315,0.0,0.7,93,0.00,,,0.00,fowsr,2013-05-03 12:41:00,
2013-05-03 08:46:00,54.9,53.1,29.80,East,90,0.0,0.0,92,0.00,,,0.00,fowsr,2013-05-03 12:46:00,
2013-05-03 08:51:00,55.4,53.4,29.81,ESE,112,0.7,4.5,91,0.00,,,0.00,fowsr,2013-05-03 12:51:00,
2013-05-03 08:56:00,55.9,53.7,29.80,SW,225,0.7,1.6,90,0.00,,,0.00,fowsr,2013-05-03 12:56:00,
2013-05-03 09:01:00,56.5,54.0,29.80,North,0,0.0,0.7,89,0.00,,,0.00,fowsr,2013-05-03 13:01:00,
2013-05-03 09:06:00,57.0,54.3,29.80,South,180,0.7,1.6,88,0.00,,,0.00,fowsr,2013-05-03 13:06:00,
2013-05-03 09:11:00,57.4,54.2,29.80,NE,45,0.7,1.6,86,0.00,,,0.00,fowsr,2013-05-03 13:11:00,
2013-05-03 09:16:00,58.1,54.9,29.80,North,0,0.0,1.6,86,0.00,,,0.00,fowsr,2013-05-03 13:16:00,
2013-05-03 09:21:00,58.6,55.2,29.80,SE,135,0.0,1.6,85,0.00,,,0.00,fowsr,2013-05-03 13:21:00,
2013-05-03 09:26:00,59.0,55.3,29.80,SE,135,0.0,1.6,84,0.00,,,0.00,fowsr,2013-05-03 13:26:00,
2013-05-03 09:31:00,59.4,55.7,29.80,NW,315,0.0,1.6,84,0.00,,,0.00,fowsr,2013-05-03 13:31:00,
2013-05-03 09:36:00,60.3,56.3,29.80,West,270,0.0,1.6,83,0.00,,,0.00,fowsr,2013-05-03 13:36:00,
2013-05-03 09:41:00,61.2,56.6,29.80,SW,225,0.7,2.2,81,0.00,,,0.00,fowsr,2013-05-03 13:41:00,
2013-05-03 09:46:00,61.5,56.7,29.80,West,270,0.0,1.6,80,0.00,,,0.00,fowsr,2013-05-03 13:46:00,
2013-05-03 09:51:00,61.9,56.8,29.81,North,0,0.0,0.7,79,0.00,,,0.00,fowsr,2013-05-03 13:51:00,
2013-05-03 09:56:00,62.8,56.9,29.80,SW,225,0.0,0.7,76,0.00,,,0.00,fowsr,2013-05-03 13:56:00,
2013-05-03 10:01:00,63.1,56.6,29.80,West,270,0.0,1.6,74,0.00,,,0.00,fowsr,2013-05-03 14:01:00,
2013-05-03 10:06:00,63.1,56.4,29.80,NE,45,0.0,0.7,73,0.00,,,0.00,fowsr,2013-05-03 14:06:00,
2013-05-03 10:11:00,62.6,55.6,29.81,West,270,0.7,2.2,72,0.00,,,0.00,fowsr,2013-05-03 14:11:00,
2013-05-03 10:16:00,62.8,55.7,29.81,SE,135,0.0,0.7,72,0.00,,,0.00,fowsr,2013-05-03 14:16:00,
2013-05-03 10:21:00,63.5,56.4,29.81,NE,45,0.0,0.7,72,0.00,,,0.00,fowsr,2013-05-03 14:21:00,
2013-05-03 10:26:00,63.7,56.3,29.81,SW,225,0.0,0.0,71,0.00,,,0.00,fowsr,2013-05-03 14:26:00,
2013-05-03 10:31:00,64.0,56.9,29.81,South,180,0.7,2.2,72,0.00,,,0.00,fowsr,2013-05-03 14:31:00,
2013-05-03 10:36:00,64.4,57.3,29.81,SW,225,0.7,2.2,72,0.00,,,0.00,fowsr,2013-05-03 14:36:00,
2013-05-03 10:41:00,65.1,58.0,29.81,East,90,0.0,1.6,72,0.00,,,0.00,fowsr,2013-05-03 14:41:00,
2013-05-03 10:46:00,65.8,58.3,29.81,West,270,1.6,3.1,71,0.00,,,0.00,fowsr,2013-05-03 14:46:00,
2013-05-03 10:51:00,65.3,56.9,29.81,South,180,0.0,1.6,68,0.00,,,0.00,fowsr,2013-05-03 14:51:00,
2013-05-03 10:56:00,64.6,56.8,29.81,North,0,0.0,1.6,70,0.00,,,0.00,fowsr,2013-05-03 14:56:00,
2013-05-03 11:01:00,64.6,56.8,29.81,NW,315,1.6,2.2,70,0.00,,,0.00,fowsr,2013-05-03 15:01:00,
2013-05-03 11:06:00,64.2,56.5,29.81,North,0,0.0,0.7,70,0.00,,,0.00,fowsr,2013-05-03 15:06:00,
2013-05-03 11:11:00,63.9,56.2,29.82,NNW,337,0.7,1.6,70,0.00,,,0.00,fowsr,2013-05-03 15:11:00,
2013-05-03 11:16:00,63.1,55.5,29.82,NW,315,0.0,1.6,70,0.00,,,0.00,fowsr,2013-05-03 15:16:00,
2013-05-03 11:21:00,63.0,55.6,29.81,NE,45,0.7,1.6,71,0.00,,,0.00,fowsr,2013-05-03 15:21:00,
2013-05-03 11:26:00,63.5,56.1,29.81,SW,225,0.0,0.7,71,0.00,,,0.00,fowsr,2013-05-03 15:26:00,
2013-05-03 11:31:00,63.9,56.5,29.81,South,180,0.7,1.6,71,0.00,,,0.00,fowsr,2013-05-03 15:31:00,
2013-05-03 11:36:00,64.2,56.8,29.81,South,180,0.7,1.6,71,0.00,,,0.00,fowsr,2013-05-03 15:36:00,
2013-05-03 11:41:00,64.4,57.0,29.81,West,270,0.7,2.2,71,0.00,,,0.00,fowsr,2013-05-03 15:41:00,
2013-05-03 11:46:00,64.8,57.0,29.81,NW,315,0.0,0.7,70,0.00,,,0.00,fowsr,2013-05-03 15:46:00,
2013-05-03 11:51:00,65.1,57.1,29.81,SW,225,0.7,1.6,69,0.00,,,0.00,fowsr,2013-05-03 15:51:00,
2013-05-03 11:56:00,65.3,57.2,29.81,NNW,337,0.0,0.7,69,0.00,,,0.00,fowsr,2013-05-03 15:56:00,
2013-05-03 12:01:00,65.3,57.2,29.81,West,270,0.7,2.2,69,0.00,,,0.00,fowsr,2013-05-03 16:01:00,
2013-05-03 12:06:00,65.5,57.1,29.80,West,270,0.0,1.6,68,0.00,,,0.00,fowsr,2013-05-03 16:06:00,
2013-05-03 12:11:00,65.8,58.0,29.80,West,270,1.6,3.1,70,0.00,,,0.00,fowsr,2013-05-03 16:11:00,
2013-05-03 12:16:00,66.7,58.3,29.80,South,180,1.6,3.1,68,0.00,,,0.00,fowsr,2013-05-03 16:16:00,
2013-05-03 12:21:00,66.7,57.6,29.81,East,90,0.0,1.6,66,0.00,,,0.00,fowsr,2013-05-03 16:21:00,
2013-05-03 12:26:00,66.7,57.0,29.80,West,270,0.7,2.2,64,0.00,,,0.00,fowsr,2013-05-03 16:26:00,
2013-05-03 12:31:00,66.6,56.8,29.80,NW,315,0.0,0.0,64,0.00,,,0.00,fowsr,2013-05-03 16:31:00,
2013-05-03 12:36:00,67.1,57.7,29.79,ESE,112,0.0,1.6,65,0.00,,,0.00,fowsr,2013-05-03 16:36:00,
2013-05-03 12:41:00,67.3,57.5,29.79,SW,225,0.0,0.7,64,0.00,,,0.00,fowsr,2013-05-03 16:41:00,
2013-05-03 12:46:00,67.3,57.5,29.79,South,180,0.7,2.2,64,0.00,,,0.00,fowsr,2013-05-03 16:46:00,
2013-05-03 12:51:00,67.3,57.2,29.78,North,0,0.0,0.7,63,0.00,,,0.00,fowsr,2013-05-03 16:51:00,
2013-05-03 12:56:00,67.5,57.7,29.78,NW,315,0.0,0.7,64,0.00,,,0.00,fowsr,2013-05-03 16:56:00,
2013-05-03 13:01:00,67.8,57.7,29.78,NW,315,0.7,1.6,63,0.00,,,0.00,fowsr,2013-05-03 17:01:00,
2013-05-03 13:06:00,68.2,58.0,29.78,SE,135,0.0,0.7,63,0.00,,,0.00,fowsr,2013-05-03 17:06:00,
2013-05-03 13:11:00,68.4,58.2,29.78,North,0,0.0,1.6,63,0.00,,,0.00,fowsr,2013-05-03 17:11:00,
2013-05-03 13:16:00,68.5,58.0,29.77,SE,135,0.0,0.0,62,0.00,,,0.00,fowsr,2013-05-03 17:16:00,
2013-05-03 13:21:00,69.1,58.8,29.77,West,270,1.6,3.8,63,0.00,,,0.00,fowsr,2013-05-03 17:21:00,
2013-05-03 13:26:00,69.3,58.7,29.77,NW,315,0.0,1.6,62,0.00,,,0.00,fowsr,2013-05-03 17:26:00,
2013-05-03 13:31:00,69.8,58.8,29.77,NW,315,0.0,0.7,61,0.00,,,0.00,fowsr,2013-05-03 17:31:00,
2013-05-03 13:36:00,69.4,58.1,29.77,SE,135,0.0,0.0,60,0.00,,,0.00,fowsr,2013-05-03 17:36:00,
2013-05-03 13:41:00,69.3,58.0,29.76,NNW,337,1.6,3.8,60,0.00,,,0.00,fowsr,2013-05-03 17:41:00,
2013-05-03 13:46:00,69.1,57.8,29.76,West,270,0.7,2.2,60,0.00,,,0.00,fowsr,2013-05-03 17:46:00,
2013-05-03 13:51:00,69.4,58.5,29.76,NW,315,1.6,3.8,61,0.00,,,0.00,fowsr,2013-05-03 17:51:00,
2013-05-03 13:56:00,69.4,57.8,29.76,NW,315,0.0,1.6,59,0.00,,,0.00,fowsr,2013-05-03 17:56:00,
2013-05-03 14:01:00,69.4,57.4,29.75,North,0,0.0,0.7,58,0.00,,,0.00,fowsr,2013-05-03 18:01:00,
2013-05-03 14:06:00,69.8,58.1,29.76,East,90,0.7,2.2,59,0.00,,,0.00,fowsr,2013-05-03 18:06:00,
2013-05-03 14:11:00,70.3,58.2,29.75,NE,45,0.0,2.2,58,0.00,,,0.00,fowsr,2013-05-03 18:11:00,
2013-05-03 14:16:00,70.7,57.8,29.75,West,270,0.0,0.7,56,0.00,,,0.00,fowsr,2013-05-03 18:16:00,
2013-05-03 14:21:00,70.5,57.7,29.76,NW,315,0.7,3.1,56,0.00,,,0.00,fowsr,2013-05-03 18:21:00,
2013-05-03 14:26:00,70.5,58.0,29.75,NW,315,0.7,1.6,57,0.00,,,0.00,fowsr,2013-05-03 18:26:00,
2013-05-03 14:31:00,70.7,57.8,29.75,NNW,337,0.7,1.6,56,0.00,,,0.00,fowsr,2013-05-03 18:31:00,
2013-05-03 14:36:00,70.7,57.8,29.75,NNW,337,0.7,1.6,56,0.00,,,0.00,fowsr,2013-05-03 18:36:00,
2013-05-03 14:41:00,69.8,57.7,29.75,WSW,247,0.0,0.7,58,0.00,,,0.00,fowsr,2013-05-03 18:41:00,
2013-05-03 14:46:00,69.6,57.6,29.75,West,270,0.0,0.7,58,0.00,,,0.00,fowsr,2013-05-03 18:46:00,
2013-05-03 14:51:00,69.8,57.7,29.74,West,270,0.0,1.6,58,0.00,,,0.00,fowsr,2013-05-03 18:51:00,
2013-05-03 14:56:00,70.0,58.3,29.75,NE,45,1.6,3.1,59,0.00,,,0.00,fowsr,2013-05-03 18:56:00,
2013-05-03 15:01:00,69.6,57.9,29.74,SW,225,0.0,1.6,59,0.00,,,0.00,fowsr,2013-05-03 19:01:00,
2013-05-03 15:06:00,69.3,58.0,29.74,NW,315,0.0,0.0,60,0.00,,,0.00,fowsr,2013-05-03 19:06:00,
2013-05-03 15:11:00,68.7,57.5,29.74,North,0,0.0,0.7,60,0.00,,,0.00,fowsr,2013-05-03 19:11:00,
2013-05-03 15:16:00,68.7,57.5,29.74,NW,315,0.7,2.2,60,0.00,,,0.00,fowsr,2013-05-03 19:16:00,
2013-05-03 15:21:00,69.3,58.0,29.74,North,0,0.7,3.1,60,0.00,,,0.00,fowsr,2013-05-03 19:21:00,
2013-05-03 15:26:00,69.4,57.8,29.74,NW,315,0.0,0.7,59,0.00,,,0.00,fowsr,2013-05-03 19:26:00,
2013-05-03 15:31:00,69.3,57.6,29.73,North,0,0.0,0.7,59,0.00,,,0.00,fowsr,2013-05-03 19:31:00,
2013-05-03 15:36:00,69.3,58.0,29.73,NW,315,0.0,0.7,60,0.00,,,0.00,fowsr,2013-05-03 19:36:00,
2013-05-03 15:41:00,69.4,58.1,29.73,North,0,0.7,3.1,60,0.00,,,0.00,fowsr,2013-05-03 19:41:00,
2013-05-03 15:46:00,69.6,58.3,29.72,East,90,0.7,2.2,60,0.00,,,0.00,fowsr,2013-05-03 19:46:00,
2013-05-03 15:51:00,70.0,57.5,29.72,SW,225,0.7,3.1,57,0.00,,,0.00,fowsr,2013-05-03 19:51:00,
2013-05-03 15:56:00,70.2,57.3,29.71,East,90,0.0,0.7,56,0.00,,,0.00,fowsr,2013-05-03 19:56:00,
2013-05-03 16:01:00,70.0,57.2,29.72,SSE,157,0.0,0.7,56,0.00,,,0.00,fowsr,2013-05-03 20:01:00,
2013-05-03 16:06:00,70.0,57.2,29.72,West,270,0.0,0.7,56,0.00,,,0.00,fowsr,2013-05-03 20:06:00,
2013-05-03 16:11:00,69.6,56.8,29.71,West,270,0.0,0.7,56,0.00,,,0.00,fowsr,2013-05-03 20:11:00,
2013-05-03 16:16:00,69.4,57.0,29.71,North,0,0.0,0.0,57,0.00,,,0.00,fowsr,2013-05-03 20:16:00,
2013-05-03 16:21:00,69.3,56.5,29.72,NW,315,0.0,0.0,56,0.00,,,0.00,fowsr,2013-05-03 20:21:00,
2013-05-03 16:26:00,69.1,56.7,29.72,SW,225,0.0,0.7,57,0.00,,,0.00,fowsr,2013-05-03 20:26:00,
2013-05-03 16:31:00,69.1,56.7,29.71,West,270,0.0,0.7,57,0.00,,,0.00,fowsr,2013-05-03 20:31:00,
2013-05-03 16:36:00,68.9,56.5,29.72,NW,315,0.0,0.7,57,0.00,,,0.00,fowsr,2013-05-03 20:36:00,
2013-05-03 16:41:00,68.9,56.5,29.72,North,0,0.0,0.0,57,0.00,,,0.00,fowsr,2013-05-03 20:41:00,
2013-05-03 16:46:00,69.1,57.1,29.72,SW,225,0.0,0.0,58,0.00,,,0.00,fowsr,2013-05-03 20:46:00,
2013-05-03 16:51:00,69.1,57.4,29.71,SE,135,0.0,1.6,59,0.00,,,0.00,fowsr,2013-05-03 20:51:00,
2013-05-03 16:56:00,69.1,56.7,29.71,NW,315,0.0,0.0,57,0.00,,,0.00,fowsr,2013-05-03 20:56:00,
2013-05-03 17:01:00,69.1,56.3,29.71,West,270,0.0,0.7,56,0.00,,,0.00,fowsr,2013-05-03 21:01:00,
2013-05-03 17:06:00,69.1,56.7,29.71,East,90,0.7,1.6,57,0.00,,,0.00,fowsr,2013-05-03 21:06:00,
2013-05-03 17:11:00,69.1,56.7,29.71,NW,315,0.0,0.7,57,0.00,,,0.00,fowsr,2013-05-03 21:11:00,
2013-05-03 17:16:00,68.9,56.2,29.71,SE,135,0.0,0.7,56,0.00,,,0.00,fowsr,2013-05-03 21:16:00,
2013-05-03 17:21:00,68.7,55.6,29.71,West,270,0.0,2.2,55,0.00,,,0.00,fowsr,2013-05-03 21:21:00,
2013-05-03 17:26:00,68.7,55.6,29.71,East,90,0.0,0.0,55,0.00,,,0.00,fowsr,2013-05-03 21:26:00,
2013-05-03 17:31:00,68.7,56.0,29.71,South,180,0.0,1.6,56,0.00,,,0.00,fowsr,2013-05-03 21:31:00,
2013-05-03 17:36:00,68.5,55.5,29.72,South,180,1.6,3.8,55,0.00,,,0.00,fowsr,2013-05-03 21:36:00,
2013-05-03 17:41:00,68.4,54.1,29.72,South,180,0.0,1.6,52,0.00,,,0.00,fowsr,2013-05-03 21:41:00,
2013-05-03 17:46:00,68.4,54.1,29.72,NW,315,0.7,2.2,52,0.00,,,0.00,fowsr,2013-05-03 21:46:00,
2013-05-03 17:51:00,68.4,54.1,29.71,NW,315,0.0,0.7,52,0.00,,,0.00,fowsr,2013-05-03 21:51:00,
2013-05-03 17:56:00,68.2,53.6,29.71,North,0,0.7,3.1,51,0.00,,,0.00,fowsr,2013-05-03 21:56:00,
2013-05-03 18:01:00,68.0,53.0,29.71,West,270,0.7,3.8,50,0.00,,,0.00,fowsr,2013-05-03 22:01:00,
2013-05-03 18:06:00,68.0,53.4,29.71,South,180,0.0,0.7,51,0.00,,,0.00,fowsr,2013-05-03 22:06:00,
2013-05-03 18:11:00,67.8,53.6,29.71,West,270,0.0,0.0,52,0.00,,,0.00,fowsr,2013-05-03 22:11:00,
2013-05-03 18:16:00,67.6,53.5,29.71,SSE,157,0.0,0.7,52,0.00,,,0.00,fowsr,2013-05-03 22:16:00,
2013-05-03 18:21:00,67.5,53.3,29.71,SW,225,0.7,1.6,52,0.00,,,0.00,fowsr,2013-05-03 22:21:00,
2013-05-03 18:26:00,67.3,52.8,29.71,SE,135,0.0,0.7,51,0.00,,,0.00,fowsr,2013-05-03 22:26:00,
2013-05-03 18:31:00,67.3,52.8,29.71,SE,135,0.0,0.7,51,0.00,,,0.00,fowsr,2013-05-03 22:31:00,
2013-05-03 18:36:00,66.9,52.4,29.71,SE,135,0.0,1.6,51,0.00,,,0.00,fowsr,2013-05-03 22:36:00,
2013-05-03 18:41:00,66.7,52.3,29.71,SW,225,0.0,0.0,51,0.00,,,0.00,fowsr,2013-05-03 22:41:00,
2013-05-03 18:46:00,66.6,52.5,29.71,West,270,0.0,0.0,52,0.00,,,0.00,fowsr,2013-05-03 22:46:00,
2013-05-03 18:51:00,66.4,52.3,29.71,SE,135,0.0,0.7,52,0.00,,,0.00,fowsr,2013-05-03 22:51:00,
2013-05-03 18:56:00,66.4,52.3,29.71,SE,135,0.0,0.7,52,0.00,,,0.00,fowsr,2013-05-03 22:56:00,
2013-05-03 19:01:00,66.2,52.2,29.71,East,90,0.0,0.7,52,0.00,,,0.00,fowsr,2013-05-03 23:01:00,
2013-05-03 19:06:00,66.0,52.4,29.72,South,180,0.0,0.0,53,0.00,,,0.00,fowsr,2013-05-03 23:06:00,
2013-05-03 19:11:00,65.8,52.2,29.72,SW,225,0.7,1.6,53,0.00,,,0.00,fowsr,2013-05-03 23:11:00,
2013-05-03 19:16:00,65.7,52.1,29.72,NW,315,0.7,1.6,53,0.00,,,0.00,fowsr,2013-05-03 23:16:00,
2013-05-03 19:21:00,65.5,51.9,29.72,West,270,0.7,2.2,53,0.00,,,0.00,fowsr,2013-05-03 23:21:00,
2013-05-03 19:26:00,65.3,51.3,29.72,East,90,0.0,1.6,52,0.00,,,0.00,fowsr,2013-05-03 23:26:00,
2013-05-03 19:31:00,65.3,50.1,29.73,West,270,0.0,0.7,49,0.00,,,0.00,fowsr,2013-05-03 23:31:00,
2013-05-03 19:36:00,64.9,48.6,29.73,East,90,0.0,0.0,46,0.00,,,0.00,fowsr,2013-05-03 23:36:00,
2013-05-03 19:41:00,64.6,48.2,29.73,North,0,0.7,2.2,46,0.00,,,0.00,fowsr,2013-05-03 23:41:00,
2013-05-03 19:46:00,64.4,48.1,29.73,SE,135,0.0,1.6,46,0.00,,,0.00,fowsr,2013-05-03 23:46:00,
2013-05-03 19:51:00,64.0,48.6,29.73,SW,225,0.0,0.7,48,0.00,,,0.00,fowsr,2013-05-03 23:51:00,
2013-05-03 20:01:00,63.3,48.4,29.73,South,180,0.0,2.2,49,0.00,,,0.00,fowsr,2013-05-04 00:01:00,
2013-05-03 20:06:00,63.0,48.0,29.74,North,0,0.0,0.0,49,0.00,,,0.00,fowsr,2013-05-04 00:06:00,
2013-05-03 20:11:00,62.8,48.3,29.74,NW,315,0.0,0.7,50,0.00,,,0.00,fowsr,2013-05-04 00:11:00,
2013-05-03 20:16:00,62.4,48.3,29.74,SE,135,0.7,2.2,51,0.00,,,0.00,fowsr,2013-05-04 00:16:00,
2013-05-03 20:21:00,62.2,48.2,29.74,SW,225,0.7,1.6,51,0.00,,,0.00,fowsr,2013-05-04 00:21:00,
2013-05-03 20:26:00,61.9,47.8,29.74,NW,315,0.0,1.6,51,0.00,,,0.00,fowsr,2013-05-04 00:26:00,
2013-05-03 20:31:00,61.7,48.1,29.74,SE,135,2.2,3.8,52,0.00,,,0.00,fowsr,2013-05-04 00:31:00,
2013-05-03 20:36:00,61.5,48.3,29.75,West,270,0.0,0.0,53,0.00,,,0.00,fowsr,2013-05-04 00:36:00,
2013-05-03 20:41:00,61.3,48.5,29.75,NW,315,0.7,1.6,54,0.00,,,0.00,fowsr,2013-05-04 00:41:00,
2013-05-03 20:46:00,61.0,48.5,29.75,North,0,0.7,2.2,55,0.00,,,0.00,fowsr,2013-05-04 00:46:00,
2013-05-03 20:51:00,60.8,48.7,29.75,South,180,0.0,0.0,56,0.00,,,0.00,fowsr,2013-05-04 00:51:00,
2013-05-03 20:56:00,60.4,49.4,29.75,West,270,0.7,2.2,59,0.00,,,0.00,fowsr,2013-05-04 00:56:00,
2013-05-03 21:01:00,60.1,49.1,29.76,West,270,0.0,0.7,59,0.00,,,0.00,fowsr,2013-05-04 01:01:00,
2013-05-03 21:06:00,59.9,49.3,29.76,North,0,0.7,1.6,60,0.00,,,0.00,fowsr,2013-05-04 01:06:00,
2013-05-03 21:11:00,59.5,48.9,29.76,NNE,22,0.0,1.6,60,0.00,,,0.00,fowsr,2013-05-04 01:11:00,
2013-05-03 21:16:00,59.4,49.1,29.77,SE,135,0.7,2.2,61,0.00,,,0.00,fowsr,2013-05-04 01:16:00,
2013-05-03 21:21:00,59.0,48.8,29.77,SE,135,0.0,0.7,61,0.00,,,0.00,fowsr,2013-05-04 01:21:00,
2013-05-03 21:26:00,58.8,48.6,29.77,West,270,1.6,3.1,61,0.00,,,0.00,fowsr,2013-05-04 01:26:00,
2013-05-03 21:31:00,58.6,48.4,29.77,NW,315,0.0,1.6,61,0.00,,,0.00,fowsr,2013-05-04 01:31:00,
2013-05-03 21:41:00,57.9,47.8,29.77,South,180,1.6,3.8,61,0.00,,,0.00,fowsr,2013-05-04 01:41:00,
2013-05-03 21:46:00,57.7,47.6,29.77,SE,135,0.7,1.6,61,0.00,,,0.00,fowsr,2013-05-04 01:46:00,
2013-05-03 21:51:00,57.4,47.3,29.77,NW,315,0.7,2.2,61,0.00,,,0.00,fowsr,2013-05-04 01:51:00,
2013-05-03 21:56:00,57.2,46.8,29.77,NE,45,1.6,3.1,60,0.00,,,0.00,fowsr,2013-05-04 01:56:00,
2013-05-03 22:01:00,57.0,47.2,29.77,NW,315,0.0,0.7,62,0.00,,,0.00,fowsr,2013-05-04 02:01:00,
2013-05-03 22:06:00,56.8,47.1,29.77,South,180,0.7,2.2,62,0.00,,,0.00,fowsr,2013-05-04 02:06:00,
2013-05-03 22:11:00,56.7,46.9,29.78,South,180,0.7,1.6,62,0.00,,,0.00,fowsr,2013-05-04 02:11:00,
2013-05-03 22:16:00,56.5,46.7,29.78,SW,225,0.0,0.7,62,0.00,,,0.00,fowsr,2013-05-04 02:16:00,
2013-05-03 22:21:00,56.3,46.6,29.78,North,0,0.0,0.7,62,0.00,,,0.00,fowsr,2013-05-04 02:21:00,
2013-05-03 22:26:00,56.1,46.4,29.78,NW,315,0.0,1.6,62,0.00,,,0.00,fowsr,2013-05-04 02:26:00,
2013-05-03 22:31:00,56.1,46.4,29.77,NE,45,0.0,1.6,62,0.00,,,0.00,fowsr,2013-05-04 02:31:00,
2013-05-03 22:36:00,56.1,46.4,29.77,NE,45,0.0,1.6,62,0.00,,,0.00,fowsr,2013-05-04 02:36:00,
2013-05-03 22:41:00,55.8,46.1,29.77,NW,315,0.0,1.6,62,0.00,,,0.00,fowsr,2013-05-04 02:41:00,
2013-05-03 22:46:00,55.6,46.2,29.77,NW,315,2.2,3.8,63,0.00,,,0.00,fowsr,2013-05-04 02:46:00,
2013-05-03 22:51:00,55.4,46.0,29.77,West,270,0.0,1.6,63,0.00,,,0.00,fowsr,2013-05-04 02:51:00,
2013-05-03 22:56:00,55.2,45.9,29.77,SW,225,0.7,2.2,63,0.00,,,0.00,fowsr,2013-05-04 02:56:00,
2013-05-03 23:01:00,55.0,45.7,29.77,NW,315,0.7,2.2,63,0.00,,,0.00,fowsr,2013-05-04 03:01:00,
2013-05-03 23:06:00,54.9,45.8,29.77,West,270,0.0,1.6,64,0.00,,,0.00,fowsr,2013-05-04 03:06:00,
2013-05-03 23:11:00,54.9,45.8,29.77,North,0,0.0,0.0,64,0.00,,,0.00,fowsr,2013-05-04 03:11:00,
2013-05-03 23:16:00,54.7,45.7,29.77,West,270,0.0,0.7,64,0.00,,,0.00,fowsr,2013-05-04 03:16:00,
2013-05-03 23:21:00,54.7,46.0,29.76,East,90,0.0,0.0,65,0.00,,,0.00,fowsr,2013-05-04 03:21:00,
2013-05-03 23:26:00,54.5,45.8,29.76,SW,225,0.0,0.0,65,0.00,,,0.00,fowsr,2013-05-04 03:26:00,
2013-05-03 23:31:00,54.3,45.9,29.76,South,180,0.0,1.6,66,0.00,,,0.00,fowsr,2013-05-04 03:31:00,
2013-05-03 23:36:00,54.1,46.1,29.76,West,270,0.7,1.6,67,0.00,,,0.00,fowsr,2013-05-04 03:36:00,
2013-05-03 23:41:00,54.1,46.1,29.76,West,270,0.7,1.6,67,0.00,,,0.00,fowsr,2013-05-04 03:41:00,
2013-05-03 23:46:00,54.0,45.9,29.76,SW,225,0.7,1.6,67,0.00,,,0.00,fowsr,2013-05-04 03:46:00,
2013-05-03 23:51:00,54.0,45.9,29.76,NW,315,0.7,1.6,67,0.00,,,0.00,fowsr,2013-05-04 03:51:00,
2013-05-03 23:56:00,54.0,45.9,29.76,SSE,157,0.0,2.2,67,0.00,,,0.00,fowsr,2013-05-04 03:56:00,